Location: Lanfeus
(48.3667°N, 4.7500°W)
Time: 14:12:02
(UTC+00:00)

Daily predictions for brighter satellites

Satellite Brightness Start Highest point End
(mag) Time Altitude Azimuth Time Altitude Azimuth Time Altitude Azimuth
Cosmos 2084 Rocket 3.9 20:58:43 10° NNW 21:02:29 48° NE 21:06:24 10° ESE
X-37B 1.2 21:00:47 10° WSW 21:03:22 33° SSW 21:05:57 10° SE
SL-8 R/B 4.0 21:00:33 10° W 21:05:15 54° SSW 21:09:55 10° SE
Meteor 2-5 Rocket 4.5 21:00:19 10° SSW 21:05:45 57° WNW 21:11:17 10° N
Helios 1A Rocket 3.8 21:03:31 10° SE 21:07:15 36° ENE 21:11:01 10° N
Cosmos 1271 Rocket 3.6 21:05:02 10° NNW 21:08:54 50° W 21:12:42 10° S
Cosmos 1741 Rocket 4.1 21:03:49 10° NNW 21:09:11 88° ENE 21:14:31 10° SSE
Cosmos 2154 Rocket 4.3 21:04:47 10° N 21:10:52 52° ENE 21:16:53 10° SSE
IRAS Rocket 4.3 21:05:30 10° NNE 21:11:04 62° ESE 21:16:33 10° S
Cosmos 1455 3.1 21:09:52 10° NNW 21:13:34 48° W 21:17:15 10° S
Ariane Rocket 3.3 21:11:00 10° S 21:16:04 69° WSW 21:21:11 10° NNW
Cosmos 2082 Rocket 3.2 21:13:25 10° SSE 21:18:07 27° ESE 21:22:51 10° NE
Cosmos 2360 4.3 21:12:21 10° NNW 21:18:08 77° ENE 21:23:52 10° SSE
SPOT 3 Rocket 3.6 21:16:06 10° SSE 21:21:17 88° ENE 21:26:33 10° NNW
Cosmos 2228 3.0 21:18:44 10° N 21:22:58 67° ENE 21:27:11 10° SSE
Cosmos 2058 Rocket 4.4 21:27:07 10° NNE 21:30:55 27° ENE 21:34:19 12° SE
Resurs 01 Rocket 3.2 21:27:22 10° SSW 21:31:22 33° W 21:35:24 10° NNW
USA 234 4.4 21:25:32 10° ENE 21:31:40 44° N 21:37:47 10° WNW
ATLAS 2AS CENTAUR R/B 4.2 21:26:44 10° NW 21:32:31 29° WSW 21:38:02 10° SSW
Meteor 1-21 Rocket 4.3 21:31:48 10° S 21:37:21 68° E 21:43:02 10° NNE
CZ-4B R/B 3.0 21:37:11 10° N 21:39:47 31° WNW 21:42:23 10° SW
Cosmos 1331 Rocket 4.0 21:35:29 10° SSW 21:40:47 81° ESE 21:46:07 10° NNE
Cosmos 2184 Rocket 4.2 21:35:46 10° NNW 21:41:56 73° W 21:48:08 10° S
SPOT 5 2.6 21:37:57 11° SSE 21:42:06 88° ENE 21:46:28 10° NNW
Terra 2.0 21:39:42 13° SSE 21:43:55 65° ENE 21:48:38 10° N
SJ 16-02 3.8 21:43:32 10° NNE 21:45:17 12° NE 21:47:01 10° ENE
Cosmos 1892 4.0 21:44:17 15° SE 21:46:21 23° E 21:49:24 10° NE
Spot 2 Rocket 3.6 21:41:30 11° SSE 21:46:28 85° WSW 21:51:38 10° NNW
H-2A R/B 4.1 21:42:46 10° N 21:46:41 31° WNW 21:50:36 10° SW
FALCON 9 DEB 3.7 21:43:36 10° WNW 21:46:48 53° NNE 21:50:01 10° E
USA 245 4.2 21:50:08 10° S 21:53:55 40° WSW 21:57:01 10° NNW
ASTEX 1 4.3 21:51:00 10° NNE 21:55:31 33° E 21:58:44 17° SE
Cosmos 1606 Rocket 3.5 21:52:09 10° N 21:56:29 85° W 22:00:09 14° S
USA 276 2.3 21:53:42 10° WNW 21:56:43 65° N 21:59:45 10° E
Cosmos 1697 Rocket 3.2 21:55:16 10° NW 22:00:43 52° WSW 22:05:32 13° S
Cosmos 1980 Rocket 2.2 21:55:19 10° NNW 22:01:04 86° ENE 22:05:29 17° SSE
ARIANE 5 R/B 2.7 21:58:45 17° SSE 22:02:07 71° ENE 22:06:32 10° N
SL-16 R/B 3.5 21:57:07 10° NNW 22:02:09 31° NE 22:07:08 10° ESE
GP-B 3.9 21:58:15 10° NNE 22:02:21 35° E 22:05:01 19° SE
Meteor 2-1 Rocket 4.4 22:00:44 10° NNW 22:06:14 70° W 22:11:11 13° S
ERS-1 Rocket 3.3 22:02:19 13° S 22:06:49 65° WSW 22:11:50 10° NNW
Cosmos 2369 3.8 22:01:20 10° NNW 22:07:06 79° WSW 22:11:30 18° SSE
ATLAS 5 CENTAUR R/B 2.1 22:08:26 21° SSE 22:09:55 28° ESE 22:13:24 10° ENE
Cosmos 2341 Rocket 4.1 22:04:29 10° N 22:10:49 69° ENE 22:15:35 18° SSE
Cosmos 1302 Rocket 3.9 22:06:53 10° SSW 22:12:04 75° ESE 22:17:16 10° NNE
COSMOS 2406 3.3 22:09:19 10° SSW 22:15:05 86° WNW 22:20:54 10° NNE
Cosmos 1726 Rocket 3.8 22:14:30 10° NNW 22:18:47 65° W 22:22:00 17° S
Cosmos 1408 2.3 22:19:29 23° S 22:21:28 71° E 22:24:54 10° NNE
Okean 1-7 Rocket 4.3 22:19:49 22° SE 22:22:08 38° E 22:26:19 10° NNE
Cosmos 968 Rocket 3.7 22:17:42 10° NNW 22:22:53 68° WSW 22:26:32 20° S
Cosmos 1869 3.9 22:21:09 10° N 22:24:52 41° ENE 22:26:47 24° SE
Cosmos 1833 Rocket 3.8 22:20:25 10° SW 22:25:48 46° NW 22:31:15 10° NNE
Cosmos 1825 2.7 22:28:50 27° SE 22:30:19 40° E 22:33:52 10° NNE
Meteor 1-27 4.3 22:25:55 10° N 22:31:28 65° ENE 22:35:01 23° SSE
TIMED 4.4 22:32:55 14° SSW 22:36:38 89° SE 22:41:02 10° NNE
Cosmos 2322 Rocket 3.2 22:31:46 10° NNW 22:37:05 39° NE 22:41:25 15° ESE
X-37B 2.9 22:37:02 10° SW 22:37:26 11° SW 22:37:26 11° SW
USA 267 3.6 22:32:51 10° ENE 22:38:58 41° SE 22:45:04 10° SSW
Cosmos 2181 Rocket 4.0 22:34:39 20° S 22:39:04 69° E 22:45:18 10° NNE
BREEZE-M DEB (TANK) 3.2 22:38:12 10° W 22:40:53 80° N 22:49:36 10° E
Cosmos-2242 4.2 22:37:25 10° N 22:41:12 30° ENE 22:43:11 21° ESE
Cosmos 1932 4.4 22:35:27 10° SSW 22:41:37 74° SE 22:47:58 10° NE
Cosmos 1867 4.0 22:37:47 10° NW 22:43:05 51° WSW 22:46:12 23° S
Cosmos 2278 3.8 22:43:41 10° NNW 22:49:24 70° WSW 22:52:47 25° SSE
Cosmos 1602 Rocket 4.1 22:48:54 28° SE 22:50:34 42° E 22:54:39 10° NNE
SAR-Lupe-4 3.5 22:50:05 10° NNE 22:53:42 90° SSE 22:55:19 31° SSW
Cosmos 2333 Rocket 4.0 22:50:05 10° NNW 22:54:51 26° NE 22:59:37 10° E
Cosmos 2082 Rocket 2.9 22:56:16 10° SW 23:01:52 56° WNW 23:07:29 10° NNE
ALOS 2 3.6 23:00:42 23° ESE 23:02:51 37° ENE 23:06:54 10° N
Gbstr 26 Del rocket 4.2 23:05:11 25° ESE 23:05:11 25° ESE 23:08:28 10° E
Nadezhda 3 Rocket 4.5 23:02:12 25° SE 23:05:23 44° E 23:11:12 10° NNE
Cosmos 2058 Rocket 4.3 23:04:56 10° NNW 23:08:56 34° W 23:11:35 18° SW
Cosmos 1606 3.5 23:06:22 10° N 23:10:02 40° ENE 23:11:18 30° ESE
Cosmos 2360 Rocket 3.0 23:06:52 10° NNW 23:12:20 45° NE 23:16:15 18° ESE
Cosmos 1626 Rocket 3.6 23:10:58 28° SSW 23:13:10 77° W 23:17:33 10° N
Cosmos 1633 2.4 23:12:29 47° SSE 23:13:16 65° E 23:16:43 10° NNE
BREEZE-M DEB (TANK) 3.9 23:00:32 10° WSW 23:13:37 73° SSE 23:17:22 10° ENE
USA 234 3.5 23:07:40 10° ESE 23:14:11 72° NNE 23:20:44 10° NW
Cosmos 1992 Rocket 4.3 23:16:35 15° SW 23:20:53 65° WNW 23:26:08 10° NNE
Cosmos 1892 4.4 23:19:06 13° SW 23:21:47 28° WNW 23:25:06 10° NNW
Terra 4.0 23:19:00 10° SW 23:22:07 17° W 23:25:14 10° NW
FALCON 9 DEB 3.9 23:19:58 10° WNW 23:22:39 34° SW 23:22:39 34° SW
SJ 16-02 1.4 23:20:13 10° NNW 23:24:40 75° ENE 23:26:24 36° SSE
H-2A R/B 3.9 23:21:38 10° NNE 23:25:43 47° E 23:26:52 37° SE
Cosmos 1825 Rocket 4.1 23:24:44 33° SE 23:26:01 42° E 23:30:08 10° NNE
Cosmos 2058 3.6 23:28:04 34° SE 23:29:10 42° E 23:33:08 10° NNE
Cosmos 2237 4.2 23:25:56 10° NNW 23:31:42 87° ENE 23:34:40 30° SSE
USA 276 2.9 23:29:30 10° W 23:31:40 36° WSW 23:31:40 36° WSW
Meteor 2-20 4.4 23:30:58 28° S 23:34:25 86° E 23:40:31 10° N
Cosmos 2221 3.8 23:34:31 10° N 23:38:25 31° ENE 23:40:15 22° ESE
COSMOS 2428 4.4 23:36:38 10° NNW 23:41:33 28° NE 23:46:26 10° ESE
Cosmos 1980 Rocket 4.2 23:40:50 10° WNW 23:44:16 17° W 23:47:14 11° SW
SL-16 R/B 2.5 23:41:02 10° NW 23:46:34 55° WSW 23:49:00 32° S
ERS-2 3.0 23:43:53 10° NNE 23:47:11 34° E 23:47:29 33° ESE
ADEOS Rocket 3.5 23:42:56 28° SSE 23:47:22 88° WSW 23:55:13 10° NNW
Cosmos 2219 Rocket 3.3 23:43:23 10° NNW 23:48:44 40° NE 23:53:12 14° ESE
SL-4 R/B 1.8 23:49:35 51° SE 23:49:35 51° SE 23:52:48 10° ENE
Cosmos 1354 Rocket 4.4 23:47:15 10° NNW 23:52:24 53° WSW 23:54:30 33° SSW
Cosmos 1934 Rocket 4.0 23:46:55 10° N 23:53:01 71° E 23:56:10 30° SSE
SL-27 R/B 4.2 23:53:43 18° E 23:53:43 18° E 23:55:42 10° NE
ATLAS 5 CENTAUR R/B 2.8 23:50:40 10° WSW 23:54:14 37° NW 23:58:19 10° NNE
